MW0YBZ Weather Reports


time (UTC)temp
C
wind
direction
speed
KPH
gust
KPH
rain 1hr
cm
rain 24hr
cm
rain mn
cm
humidity
%
barometer
mb
20260508030050 9 58 1.6 4.8 0.00 0.00 0.00 81 1014.5
20260508025533 9 0 1.6 4.8 0.00 0.00 0.00 81 1014.5
20260508025034 8 104 0.0 4.8 0.00 0.00 0.00 80 1014.5
20260508024548 8 0 0.0 4.8 0.00 0.00 0.00 81 1014.5
20260508024034 8 0 1.6 4.8 0.00 0.00 0.00 81 1014.5
20260508023536 8 105 0.0 3.2 0.00 0.00 0.00 81 1014.7
20260508023045 8 0 0.0 3.2 0.00 0.00 0.00 81 1014.6
20260508022533 8 0 0.0 4.8 0.00 0.00 0.00 81 1014.6
20260508022034 8 0 0.0 4.8 0.00 0.00 0.00 80 1014.6
20260508021547 8 95 1.6 4.8 0.00 0.00 0.00 81 1014.6
20260508021033 8 108 1.6 4.8 0.00 0.00 0.00 81 1014.5
20260508020534 8 90 1.6 4.8 0.00 0.00 0.00 81 1014.5
20260508020044 9 103 1.6 12.9 0.00 0.00 0.00 81 1014.6
20260508015533 8 116 3.2 12.9 0.00 0.00 0.00 81 1014.4
20260508015035 9 116 1.6 9.7 0.00 0.00 0.00 81 1014.5
20260508014544 9 62 1.6 9.7 0.00 0.00 0.00 81 1014.5
20260508014035 9 71 3.2 6.4 0.00 0.00 0.00 81 1014.4
20260508013535 9 0 3.2 6.4 0.00 0.00 0.00 81 1014.5
20260508013046 9 64 1.6 4.8 0.00 0.00 0.00 80 1014.5
20260508012535 9 65 1.6 4.8 0.00 0.00 0.00 81 1014.5
20260508012034 9 66 0.0 3.2 0.00 0.00 0.00 81 1014.5
20260508011551 8 69 1.6 3.2 0.00 0.00 0.00 81 1014.5
20260508011036 8 0 0.0 4.8 0.00 0.00 0.00 82 1014.6
20260508010534 9 64 0.0 4.8 0.00 0.00 0.00 83 1014.7
20260508010046 9 69 0.0 4.8 0.00 0.00 0.00 83 1014.7
20260508005538 9 64 0.0 4.8 0.00 0.00 0.00 83 1014.8
20260508005035 9 0 1.6 4.8 0.00 0.00 0.00 83 1014.8
20260508004543 9 143 0.0 3.2 0.00 0.00 0.00 83 1014.8
20260508004033 10 113 0.0 3.2 0.00 0.00 0.00 83 1014.8
20260508003533 10 0 1.6 3.2 0.00 0.00 0.00 84 1014.8
20260508003043 10 0 0.0 3.2 0.00 0.00 0.00 83 1014.7
20260508002535 9 0 0.0 3.2 0.00 0.00 0.00 83 1014.7
20260508002035 9 59 0.0 3.2 0.00 0.00 0.00 83 1014.6
20260508001541 9 0 0.0 1.6 0.00 0.00 0.00 83 1014.7
20260508001035 9 0 0.0 1.6 0.00 0.00 0.00 82 1014.7
20260508000532 9 0 0.0 1.6 0.00 0.00 0.00 82 1014.7
20260508000051 9 0 0.0 3.2 0.00 0.00 0.00 81 1014.7
20260507235534 9 0 0.0 3.2 0.00 0.00 0.00 81 1014.8
20260507235037 9 0 0.0 3.2 0.00 0.00 0.00 80 1014.6
20260507234542 9 57 1.6 4.8 0.00 0.00 0.00 80 1014.7
20260507234035 9 53 1.6 4.8 0.00 0.00 0.00 79 1014.7
20260507233538 9 0 0.0 4.8 0.00 0.00 0.00 79 1014.7
20260507233048 10 0 0.0 4.8 0.00 0.00 0.00 79 1014.9
20260507232534 10 35 1.6 4.8 0.00 0.00 0.00 79 1014.8
20260507232033 10 36 1.6 4.8 0.00 0.00 0.00 78 1014.8
20260507231554 10 38 1.6 4.8 0.00 0.00 0.00 78 1014.7
20260507231035 10 44 1.6 3.2 0.00 0.00 0.00 78 1014.8
20260507230535 10 42 1.6 3.2 0.00 0.00 0.00 78 1014.9
20260507230050 10 63 1.6 3.2 0.00 0.00 0.00 77 1014.8
20260507225534 10 0 1.6 3.2 0.00 0.00 0.00 77 1014.9
20260507225034 10 63 1.6 4.8 0.00 0.00 0.00 77 1015.0
20260507224546 10 63 1.6 4.8 0.00 0.00 0.00 77 1014.9
20260507224034 10 67 0.0 3.2 0.00 0.00 0.00 77 1014.9
20260507223535 10 64 0.0 3.2 0.00 0.00 0.00 76 1015.0
20260507223045 10 0 0.0 0.0 0.00 0.00 0.00 76 1014.9
20260507222536 10 0 0.0 1.6 0.00 0.00 0.00 76 1014.9
20260507222035 10 0 0.0 1.6 0.00 0.00 0.00 76 1014.9
20260507221543 10 0 0.0 4.8 0.00 0.00 0.00 76 1014.8
20260507221037 10 0 0.0 4.8 0.00 0.00 0.00 75 1014.8
20260507220535 10 0 1.6 4.8 0.00 0.00 0.00 75 1014.8
20260507220042 10 79 1.6 4.8 0.00 0.00 0.00 75 1014.8
20260507215538 10 63 1.6 4.8 0.00 0.00 0.00 75 1014.8
20260507215034 10 40 1.6 4.8 0.00 0.00 0.00 75 1014.9
20260507214602 10 66 1.6 4.8 0.00 0.00 0.00 75 1014.8
20260507214035 10 63 1.6 4.8 0.00 0.00 0.00 74 1014.9
20260507213538 10 61 1.6 4.8 0.00 0.00 0.00 74 1014.9
20260507213052 10 54 0.0 3.2 0.00 0.00 0.00 74 1014.9
20260507212536 10 34 0.0 3.2 0.00 0.00 0.00 74 1015.0
20260507212038 10 0 0.0 3.2 0.00 0.00 0.00 74 1014.8
20260507211549 10 0 0.0 3.2 0.00 0.00 0.00 74 1014.9
20260507211034 10 36 0.0 3.2 0.00 0.00 0.00 74 1014.9
20260507210534 10 0 0.0 3.2 0.00 0.00 0.00 73 1014.8
20260507210047 10 14 0.0 1.6 0.00 0.00 0.00 73 1014.8
20260507205534 10 0 0.0 1.6 0.00 0.00 0.00 73 1014.7
20260507205037 10 0 0.0 1.6 0.00 0.00 0.00 73 1014.7
20260507204547 10 0 0.0 3.2 0.00 0.00 0.00 73 1014.6
20260507204040 10 0 0.0 3.2 0.00 0.00 0.00 73 1014.6
20260507203535 10 14 0.0 1.6 0.00 0.00 0.00 73 1014.6
20260507203104 10 0 0.0 3.2 0.00 0.00 0.00 73 1014.5
20260507202537 10 0 0.0 3.2 0.00 0.00 0.00 73 1014.5
20260507202037 10 0 0.0 3.2 0.00 0.00 0.00 73 1014.4
20260507201556 10 19 0.0 4.8 0.00 0.00 0.00 73 1014.3
20260507201037 10 19 0.0 4.8 0.00 0.00 0.00 73 1014.2
20260507200539 10 350 0.0 3.2 0.00 0.00 0.00 73 1014.3
20260507200104 11 0 0.0 3.2 0.00 0.00 0.00 72 1014.1
20260507195537 11 0 0.0 3.2 0.00 0.00 0.00 72 1014.1
20260507195038 11 0 0.0 4.8 0.00 0.00 0.00 72 1014.1
20260507194549 11 0 0.0 4.8 0.00 0.00 0.00 72 1014.0
20260507194036 11 0 0.0 3.2 0.00 0.00 0.00 72 1014.2
20260507193537 11 0 0.0 1.6 0.00 0.00 0.00 72 1014.1
20260507193051 11 352 0.0 1.6 0.00 0.00 0.00 73 1014.1
20260507192537 11 352 0.0 1.6 0.00 0.00 0.00 73 1014.0
20260507192039 11 0 0.0 1.6 0.00 0.00 0.00 73 1014.1
20260507191549 11 0 0.0 1.6 0.00 0.00 0.00 73 1014.2
20260507191037 11 0 0.0 1.6 0.00 0.00 0.00 73 1014.1
20260507190540 11 0 0.0 3.2 0.00 0.00 0.00 73 1014.1
20260507190049 11 0 0.0 3.2 0.00 0.00 0.00 73 1014.0
20260507185537 11 0 0.0 3.2 0.00 0.00 0.00 73 1014.0
20260507185038 11 0 0.0 3.2 0.00 0.00 0.00 73 1014.1
20260507184556 11 0 0.0 4.8 0.00 0.00 0.00 72 1014.1
20260507184036 11 324 1.6 4.8 0.00 0.00 0.00 72 1014.1
20260507183534 11 300 0.0 4.8 0.00 0.00 0.00 72 1014.1
20260507183051 11 0 0.0 4.8 0.00 0.00 0.00 71 1014.1
20260507182538 11 0 0.0 4.8 0.00 0.00 0.00 71 1014.1
20260507182036 11 0 0.0 3.2 0.00 0.00 0.00 70 1014.1
20260507181549 12 0 0.0 6.4 0.00 0.00 0.00 70 1014.1
20260507181036 12 0 0.0 6.4 0.00 0.00 0.00 70 1014.1
20260507180542 12 273 3.2 6.4 0.00 0.00 0.00 70 1014.0
20260507180052 12 263 1.6 6.4 0.00 0.00 0.00 70 1014.0
20260507175537 12 257 1.6 4.8 0.00 0.00 0.00 69 1014.0
20260507175036 12 278 0.0 6.4 0.00 0.00 0.00 70 1014.0
20260507174549 12 275 1.6 6.4 0.00 0.00 0.00 69 1014.0
20260507174035 12 220 1.6 4.8 0.00 0.00 0.00 69 1014.0
20260507173537 12 217 1.6 4.8 0.00 0.00 0.00 69 1014.0
20260507173043 12 248 0.0 4.8 0.00 0.00 0.00 70 1014.1
20260507172534 12 270 0.0 4.8 0.00 0.00 0.00 70 1014.0
20260507172035 12 200 1.6 4.8 0.00 0.00 0.00 69 1014.0
20260507171544 12 244 1.6 6.4 0.00 0.00 0.00 69 1014.0
20260507171034 12 0 1.6 6.4 0.00 0.00 0.00 69 1014.0
20260507170535 12 236 1.6 6.4 0.00 0.00 0.00 70 1014.0
20260507170100 12 273 0.0 6.4 0.00 0.00 0.00 70 1014.1
20260507165534 12 0 0.0 6.4 0.00 0.00 0.00 70 1014.0
20260507165034 12 202 1.6 6.4 0.00 0.00 0.00 69 1014.1
20260507164600 12 240 1.6 6.4 0.00 0.00 0.00 70 1014.1
20260507164038 12 0 1.6 9.7 0.00 0.00 0.00 70 1014.1
20260507163534 12 268 1.6 9.7 0.00 0.00 0.00 71 1014.1
20260507163049 12 252 3.2 11.3 0.00 0.00 0.00 71 1014.1
20260507162535 12 230 3.2 11.3 0.00 0.00 0.00 72 1014.0
20260507162034 12 235 4.8 11.3 0.00 0.00 0.00 71 1013.9
20260507161548 11 234 1.6 8.0 0.00 0.00 0.00 71 1014.0
20260507161034 11 212 1.6 9.7 0.00 0.00 0.00 71 1014.1
20260507160537 12 284 3.2 11.3 0.00 0.00 0.00 71 1014.0
20260507160047 12 261 3.2 12.9 0.00 0.00 0.00 71 1014.0
20260507155536 12 229 4.8 12.9 0.00 0.00 0.00 71 1014.1
20260507155037 12 246 6.4 14.5 0.00 0.00 0.00 70 1014.0
20260507154554 12 234 6.4 14.5 0.00 0.00 0.00 69 1014.1
20260507154036 12 258 6.4 14.5 0.00 0.00 0.00 68 1014.0
20260507153534 12 229 4.8 14.5 0.00 0.00 0.00 68 1013.9
20260507153050 12 248 4.8 17.7 0.00 0.00 0.00 68 1014.0
20260507152534 12 195 6.4 17.7 0.00 0.00 0.00 66 1014.0
20260507152035 12 236 6.4 12.9 0.00 0.00 0.00 66 1014.1
20260507151550 12 201 6.4 16.1 0.00 0.00 0.00 64 1014.0
20260507151035 12 245 8.0 16.1 0.00 0.00 0.00 63 1014.0
20260507150535 12 182 6.4 14.5 0.00 0.00 0.00 64 1014.0
20260507150048 12 257 8.0 16.1 0.00 0.00 0.00 64 1014.0
20260507145534 12 178 4.8 16.1 0.00 0.00 0.00 66 1014.0
20260507145036 13 229 4.8 19.3 0.00 0.00 0.00 66 1013.9
20260507144549 12 240 8.0 19.3 0.00 0.00 0.00 65 1014.0
20260507144035 13 210 8.0 19.3 0.00 0.00 0.00 64 1014.1
20260507143535 13 197 6.4 14.5 0.00 0.00 0.00 64 1014.1
20260507143057 13 151 6.4 16.1 0.00 0.00 0.00 63 1014.1
20260507142535 13 148 3.2 17.7 0.00 0.00 0.00 65 1014.2
20260507142035 13 168 4.8 17.7 0.00 0.00 0.00 64 1014.3
20260507141554 13 153 6.4 16.1 0.00 0.00 0.00 64 1014.2
20260507141035 13 252 6.4 16.1 0.00 0.00 0.00 66 1014.4
20260507140535 13 137 8.0 16.1 0.00 0.00 0.00 65 1014.3
20260507140046 13 150 4.8 14.5 0.00 0.00 0.00 65 1014.2
20260507135534 13 94 6.4 14.5 0.00 0.00 0.00 64 1014.3
20260507135034 13 223 6.4 17.7 0.00 0.00 0.00 65 1014.2
20260507134554 13 117 8.0 17.7 0.00 0.00 0.00 63 1014.3
20260507134035 13 146 8.0 20.9 0.00 0.00 0.00 63 1014.3
20260507133534 13 203 8.0 20.9 0.00 0.00 0.00 63 1014.3
20260507133102 13 187 3.2 16.1 0.00 0.00 0.00 64 1014.2
20260507132536 13 230 6.4 20.9 0.00 0.00 0.00 63 1014.3
20260507132034 13 144 9.7 20.9 0.00 0.00 0.00 62 1014.3
20260507131553 13 215 6.4 17.7 0.00 0.00 0.00 65 1014.3
20260507131036 13 145 6.4 17.7 0.00 0.00 0.00 65 1014.3
20260507130535 13 209 6.4 16.1 0.00 0.00 0.00 64 1014.3
20260507130106 13 182 8.0 17.7 0.00 0.00 0.00 64 1014.4
20260507125535 13 223 6.4 17.7 0.00 0.00 0.00 63 1014.4
20260507125036 13 247 6.4 16.1 0.00 0.00 0.00 64 1014.4
20260507124548 13 194 6.4 16.1 0.00 0.00 0.00 64 1014.4
20260507124037 13 188 4.8 14.5 0.00 0.00 0.00 65 1014.4
20260507123534 13 275 4.8 16.1 0.00 0.00 0.00 64 1014.6
20260507123051 13 251 6.4 16.1 0.00 0.00 0.00 64 1014.6
20260507122534 13 217 4.8 20.9 0.00 0.00 0.00 64 1014.5
20260507122035 13 210 8.0 20.9 0.00 0.00 0.00 64 1014.5
20260507121604 13 151 8.0 20.9 0.00 0.00 0.00 66 1014.5
20260507121039 13 134 6.4 19.3 0.00 0.00 0.00 66 1014.6
20260507120535 13 119 8.0 19.3 0.00 0.00 0.00 66 1014.5
20260507120059 13 108 6.4 19.3 0.00 0.00 0.00 67 1014.5
20260507115534 13 182 4.8 19.3 0.00 0.00 0.00 67 1014.5
20260507115037 12 223 6.4 16.1 0.00 0.00 0.00 67 1014.5
20260507114627 12 187 6.4 16.1 0.00 0.00 0.00 67 1014.7
20260507114035 12 213 4.8 16.1 0.00 0.00 0.00 65 1014.6
20260507113533 13 216 8.0 17.7 0.00 0.00 0.00 65 1014.7
20260507113043 13 211 8.0 17.7 0.00 0.00 0.00 65 1014.7
20260507112535 13 178 4.8 16.1 0.00 0.00 0.00 69 1014.8
20260507112040 13 184 3.2 16.1 0.00 0.00 0.00 67 1014.7
20260507111547 13 92 4.8 16.1 0.00 0.00 0.00 69 1014.9
20260507111034 12 181 6.4 16.1 0.00 0.00 0.00 67 1014.9
20260507110535 13 205 6.4 17.7 0.00 0.00 0.00 68 1014.9
20260507110042 12 151 8.0 17.7 0.00 0.00 0.00 69 1014.8
20260507105535 12 207 4.8 17.7 0.00 0.00 0.00 69 1015.1
20260507105037 13 186 8.0 17.7 0.00 0.00 0.00 69 1015.0
20260507104543 12 150 8.0 17.7 0.00 0.00 0.00 70 1015.1
20260507104035 12 186 8.0 17.7 0.00 0.00 0.00 69 1015.0
20260507103536 12 202 9.7 17.7 0.00 0.00 0.00 70 1015.0
20260507103047 12 199 6.4 24.1 0.00 0.00 0.00 69 1014.9
20260507102535 12 164 9.7 24.1 0.00 0.00 0.00 70 1014.9
20260507102038 12 211 8.0 17.7 0.00 0.00 0.00 68 1014.9
20260507101546 12 141 9.7 19.3 0.00 0.00 0.00 68 1015.0
20260507101034 12 157 6.4 19.3 0.00 0.00 0.00 69 1015.1
20260507100534 12 111 4.8 17.7 0.00 0.00 0.00 70 1015.0
20260507100048 12 136 6.4 17.7 0.00 0.00 0.00 70 1015.0
20260507095535 12 134 4.8 14.5 0.00 0.00 0.00 71 1014.9
20260507095034 11 174 6.4 17.7 0.00 0.00 0.00 71 1015.2
20260507094542 11 156 8.0 17.7 0.00 0.00 0.00 71 1015.1
20260507094034 12 168 8.0 17.7 0.00 0.00 0.00 71 1014.8
20260507093534 11 143 6.4 17.7 0.00 0.00 0.00 74 1014.7
20260507093049 11 108 8.0 19.3 0.00 0.00 0.00 75 1014.9
20260507092534 11 148 8.0 19.3 0.00 0.00 0.00 75 1014.9
20260507092034 11 86 8.0 16.1 0.00 0.00 0.00 75 1014.6
20260507091547 11 131 6.4 14.5 0.00 0.00 0.00 75 1014.7
20260507091035 11 171 6.4 14.5 0.00 0.00 0.00 76 1014.8
20260507090538 11 165 3.2 12.9 0.00 0.00 0.00 77 1014.7
20260507090042 11 187 6.4 12.9 0.00 0.00 0.00 76 1014.8
20260507085536 11 99 3.2 14.5 0.00 0.00 0.00 77 1014.7
20260507085035 10 227 4.8 14.5 0.00 0.00 0.00 78 1014.8
20260507084557 10 40 3.2 11.3 0.00 0.00 0.00 80 1014.9
20260507084034 10 140 3.2 11.3 0.00 0.00 0.00 80 1014.9
20260507083535 9 42 3.2 12.9 0.00 0.00 0.00 81 1014.9
20260507083044 9 106 4.8 12.9 0.00 0.00 0.00 81 1014.9
20260507082536 8 111 3.2 12.9 0.00 0.00 0.00 82 1015.0
20260507082037 8 119 6.4 12.9 0.00 0.00 0.00 81 1015.0
20260507081543 8 117 4.8 14.5 0.00 0.00 0.00 81 1015.0
20260507081039 8 113 6.4 14.5 0.00 0.00 0.00 82 1014.8
20260507080536 8 87 3.2 12.9 0.00 0.00 0.00 82 1014.9
20260507080045 8 115 4.8 12.9 0.00 0.00 0.00 82 1014.8
20260507075534 8 113 3.2 11.3 0.00 0.00 0.00 83 1014.8
20260507075035 8 112 4.8 16.1 0.00 0.00 0.00 83 1014.9
20260507074545 7 114 3.2 16.1 0.00 0.00 0.00 83 1014.7
20260507074034 7 119 4.8 16.1 0.00 0.00 0.00 83 1014.7
20260507073534 7 89 4.8 14.5 0.00 0.00 0.00 84 1014.7
20260507073051 7 108 4.8 14.5 0.00 0.00 0.00 83 1014.8
20260507072535 7 126 4.8 12.9 0.00 0.00 0.00 83 1014.8
20260507072038 7 69 6.4 14.5 0.00 0.00 0.00 83 1014.8
20260507071546 7 109 6.4 14.5 0.00 0.00 0.00 83 1014.8
20260507071043 7 121 3.2 14.5 0.00 0.00 0.00 83 1014.7
20260507070534 7 111 6.4 14.5 0.00 0.00 0.00 83 1014.8
20260507070042 7 90 4.8 12.9 0.00 0.00 0.00 83 1014.7
20260507065538 7 136 4.8 12.9 0.00 0.00 0.00 83 1014.6
20260507065034 7 130 4.8 11.3 0.00 0.00 0.00 83 1014.6
20260507064542 7 134 6.4 11.3 0.00 0.00 0.00 83 1014.5
20260507064035 7 117 3.2 8.0 0.00 0.00 0.00 83 1014.6
20260507063534 7 120 1.6 6.4 0.00 0.00 0.00 83 1014.6
20260507063042 7 127 1.6 6.4 0.00 0.00 0.00 83 1014.5
20260507062534 7 119 1.6 6.4 0.00 0.00 0.00 83 1014.5
20260507062033 7 136 3.2 9.7 0.00 0.00 0.00 83 1014.4
20260507061546 7 102 3.2 9.7 0.00 0.00 0.00 83 1014.4
20260507061034 7 107 3.2 9.7 0.00 0.00 0.00 83 1014.3
20260507060535 7 136 3.2 6.4 0.00 0.00 0.00 83 1014.3
20260507060044 7 119 3.2 9.7 0.00 0.00 0.00 83 1014.3
20260507055535 7 121 3.2 9.7 0.00 0.00 0.00 83 1014.3
20260507055034 7 116 3.2 6.4 0.00 0.00 0.00 83 1014.4
20260507054542 7 117 1.6 4.8 0.00 0.00 0.00 83 1014.3
20260507054035 7 0 0.0 9.7 0.00 0.00 0.00 83 1014.2
20260507053535 7 0 0.0 9.7 0.00 0.00 0.00 83 1014.2
20260507053042 7 113 3.2 9.7 0.00 0.00 0.00 83 1014.2
20260507052534 7 126 1.6 8.0 0.00 0.00 0.00 83 1014.2
20260507052034 7 24 3.2 6.4 0.00 0.00 0.00 83 1014.2
20260507051542 7 51 1.6 9.7 0.00 0.00 0.00 82 1014.1
20260507051035 7 78 1.6 11.3 0.00 0.00 0.00 82 1014.2
20260507050535 7 103 4.8 11.3 0.00 0.00 0.00 82 1014.3
20260507050053 7 72 1.6 4.8 0.00 0.00 0.00 83 1014.3
20260507045534 7 0 1.6 9.7 0.00 0.00 0.00 82 1014.3
20260507045034 7 115 3.2 9.7 0.00 0.00 0.00 82 1014.2
20260507044545 7 148 1.6 6.4 0.00 0.00 0.00 82 1014.2
20260507044035 7 114 1.6 6.4 0.00 0.00 0.00 82 1014.1
20260507043535 7 110 1.6 9.7 0.00 0.00 0.00 82 1014.2
20260507043046 7 139 3.2 9.7 0.00 0.00 0.00 82 1014.2
20260507042537 7 120 3.2 9.7 0.00 0.00 0.00 82 1014.2
20260507042034 7 113 3.2 6.4 0.00 0.00 0.00 82 1014.2
20260507041542 7 122 3.2 9.7 0.00 0.00 0.00 82 1014.2
20260507041035 7 68 1.6 9.7 0.00 0.00 0.00 82 1014.2
20260507040536 7 109 1.6 8.0 0.00 0.00 0.00 81 1014.2
20260507040056 7 109 3.2 8.0 0.00 0.00 0.00 81 1014.2
20260507035535 7 109 1.6 4.8 0.00 0.00 0.00 81 1014.0
20260507035035 7 111 0.0 9.7 0.00 0.00 0.00 81 1014.1
20260507034554 7 110 1.6 11.3 0.00 0.00 0.00 81 1014.1
20260507034035 7 122 3.2 11.3 0.00 0.00 0.00 81 1014.0
20260507033535 7 101 3.2 6.4 0.00 0.00 0.00 81 1014.1
20260507033050 7 105 1.6 8.0 0.00 0.00 0.00 81 1014.0
20260507032535 7 78 3.2 8.0 0.00 0.00 0.00 81 1014.0
20260507032038 7 82 1.6 6.4 0.00 0.00 0.00 81 1014.1
20260507031549 7 60 1.6 6.4 0.00 0.00 0.00 80 1014.1
20260507031038 7 76 1.6 6.4 0.00 0.00 0.00 80 1014.2
20260507030536 7 80 1.6 9.7 0.00 0.00 0.00 80 1014.1